EJU18UJ LFLL-LKPR

Flight info

Callsign EJU18UJ
Flight time 1h 23m
Altitude 36000
Route RISOR T45 SOSAL N871 KORED DCT BERSU DCT DITON/N0440F370 DCT LOKTA DCT TEDGO/N0437F360 DCT OKIBA/N0441F370 DCT COSJE DCT TONSU Z35 ODOMO DCT LOMKI
Aircraft A320/M-SDE2E3FGHIJ1RWXYZ/LB1

Departure

Time 2026-05-07 12:43
Airport Lyon Saint-Exupéry Airport (LFLL)

Arrival

Time 2026-05-07 14:06
Airport Václav Havel Airport Prague (LKPR)
Time Latitude Longitude Altitude Speed Heading
2026-05-07 12:23 45.71592 5.08267 802 ft 0 kts 195°
2026-05-07 12:36 45.71598 5.08269 802 ft 4 kts 195°
2026-05-07 12:36 45.71620 5.08278 801 ft 1 kts 195°
2026-05-07 12:37 45.71634 5.08283 801 ft 3 kts 195°
2026-05-07 12:37 45.71651 5.08290 801 ft 3 kts 195°
2026-05-07 12:37 45.71668 5.08296 800 ft 3 kts 195°
2026-05-07 12:38 45.71684 5.08295 800 ft 2 kts 128°
2026-05-07 12:38 45.71684 5.08294 800 ft 0 kts 128°
2026-05-07 12:39 45.71676 5.08327 800 ft 8 kts 88°
2026-05-07 12:40 45.71683 5.08409 800 ft 7 kts 84°
2026-05-07 12:40 45.71655 5.08492 802 ft 13 kts 150°
2026-05-07 12:40 45.71587 5.08507 802 ft 9 kts 175°
2026-05-07 12:40 45.71489 5.08519 804 ft 18 kts 175°
2026-05-07 12:41 45.71367 5.08533 811 ft 18 kts 175°
2026-05-07 12:41 45.71238 5.08549 814 ft 18 kts 175°
2026-05-07 12:41 45.71139 5.08594 814 ft 12 kts 136°
2026-05-07 12:41 45.71109 5.08687 817 ft 11 kts 104°
2026-05-07 12:42 45.71083 5.08828 819 ft 18 kts 104°
2026-05-07 12:42 45.71113 5.08996 820 ft 19 kts 38°
2026-05-07 12:42 45.71228 5.09015 818 ft 16 kts 356°
2026-05-07 12:42 45.71427 5.08991 815 ft 56 kts 355°
2026-05-07 12:43 45.72035 5.08916 810 ft 117 kts 355°
2026-05-07 12:43 45.73019 5.08798 797 ft 164 kts 354°
2026-05-07 12:43 45.74148 5.08665 1468 ft 159 kts 356°
2026-05-07 12:43 45.75265 5.08536 2084 ft 169 kts 355°
2026-05-07 12:44 45.76502 5.08387 2456 ft 187 kts 356°
2026-05-07 12:44 45.77860 5.08208 2827 ft 206 kts 354°
2026-05-07 12:44 45.79378 5.08001 3202 ft 231 kts 355°
2026-05-07 12:44 45.81049 5.07883 3689 ft 251 kts
2026-05-07 12:45 45.82713 5.08735 4403 ft 261 kts 35°
2026-05-07 12:45 45.83934 5.10680 5219 ft 267 kts 57°
2026-05-07 12:45 45.84951 5.12931 6093 ft 271 kts 57°
2026-05-07 12:45 45.85990 5.15236 6848 ft 278 kts 58°
2026-05-07 12:46 45.87039 5.17576 7679 ft 281 kts 59°
2026-05-07 12:46 45.88100 5.19948 8496 ft 284 kts 58°
2026-05-07 12:46 45.89178 5.22341 9330 ft 288 kts 59°
2026-05-07 12:46 45.90279 5.24779 10087 ft 293 kts 58°
2026-05-07 12:47 45.91423 5.27299 10489 ft 312 kts 58°
2026-05-07 12:47 45.92651 5.29994 10747 ft 333 kts 58°
2026-05-07 12:47 45.93941 5.32818 11307 ft 342 kts 58°
2026-05-07 12:47 45.95256 5.35691 11989 ft 347 kts 57°
2026-05-07 12:48 45.96591 5.38616 12670 ft 352 kts 57°
2026-05-07 12:48 45.97937 5.41585 13383 ft 356 kts 57°
2026-05-07 12:48 45.99290 5.44594 14025 ft 360 kts 57°
2026-05-07 12:48 46.00656 5.47631 14637 ft 364 kts 57°
2026-05-07 12:49 46.02044 5.50706 15256 ft 368 kts 56°
2026-05-07 12:49 46.03441 5.53801 15875 ft 371 kts 56°
2026-05-07 12:49 46.04851 5.56931 16499 ft 374 kts 56°
2026-05-07 12:49 46.06274 5.60094 17087 ft 378 kts 56°
2026-05-07 12:50 46.07708 5.63290 17706 ft 382 kts 56°
2026-05-07 12:50 46.09155 5.66521 18301 ft 385 kts 56°
2026-05-07 12:50 46.10611 5.69776 18824 ft 388 kts 56°
2026-05-07 12:50 46.12077 5.73059 19347 ft 391 kts 56°
2026-05-07 12:51 46.13556 5.76370 19869 ft 394 kts 56°
2026-05-07 12:51 46.15046 5.79706 20346 ft 397 kts 56°
2026-05-07 12:51 46.16546 5.83074 20865 ft 400 kts 56°
2026-05-07 12:51 46.18054 5.86465 21373 ft 403 kts 56°
2026-05-07 12:52 46.19551 5.89841 21840 ft 406 kts 56°
2026-05-07 12:52 46.21099 5.93334 22319 ft 409 kts 56°
2026-05-07 12:52 46.22638 5.96803 22827 ft 411 kts 57°
2026-05-07 12:52 46.24183 6.00287 23306 ft 413 kts 56°
2026-05-07 12:53 46.25735 6.03794 23753 ft 416 kts 56°
2026-05-07 12:53 46.27297 6.07333 24146 ft 419 kts 56°
2026-05-07 12:53 46.28846 6.10844 24507 ft 421 kts 56°
2026-05-07 12:53 46.30423 6.14425 24885 ft 424 kts 56°
2026-05-07 12:54 46.32009 6.18034 25238 ft 427 kts 56°
2026-05-07 12:54 46.33604 6.21666 25597 ft 429 kts 56°
2026-05-07 12:54 46.35209 6.25325 25951 ft 432 kts 56°
2026-05-07 12:54 46.36821 6.29004 26299 ft 434 kts 56°
2026-05-07 12:55 46.38443 6.32710 26649 ft 437 kts 56°
2026-05-07 12:55 46.40073 6.36439 27015 ft 439 kts 56°
2026-05-07 12:55 46.41707 6.40183 27379 ft 441 kts 56°
2026-05-07 12:55 46.43346 6.43947 27716 ft 443 kts 56°
2026-05-07 12:56 46.44994 6.47737 28067 ft 445 kts 56°
2026-05-07 12:56 46.46645 6.51537 28414 ft 447 kts 56°
2026-05-07 12:56 46.48307 6.55365 28730 ft 450 kts 56°
2026-05-07 12:56 46.49978 6.59219 29050 ft 452 kts 55°
2026-05-07 12:57 46.51657 6.63088 29372 ft 454 kts 55°
2026-05-07 12:57 46.53349 6.66995 29692 ft 457 kts 55°
2026-05-07 12:57 46.55039 6.70906 30002 ft 459 kts 55°
2026-05-07 12:57 46.56736 6.74842 30260 ft 462 kts 55°
2026-05-07 12:58 46.58444 6.78813 30505 ft 464 kts 55°
2026-05-07 12:58 46.60155 6.82800 30732 ft 466 kts 55°
2026-05-07 12:58 46.61877 6.86816 30968 ft 469 kts 55°
2026-05-07 12:58 46.63605 6.90847 31200 ft 471 kts 55°
2026-05-07 12:59 46.65337 6.94894 31488 ft 471 kts 56°
2026-05-07 12:59 46.67069 6.98946 31802 ft 472 kts 55°
2026-05-07 12:59 46.68800 7.02999 32107 ft 472 kts 55°
2026-05-07 12:59 46.70531 7.07062 32395 ft 472 kts 55°
2026-05-07 13:00 46.72263 7.11135 32676 ft 473 kts 56°
2026-05-07 13:00 46.73972 7.15162 32986 ft 473 kts 55°
2026-05-07 13:00 46.75704 7.19248 33334 ft 473 kts 56°
2026-05-07 13:00 46.77450 7.23374 33687 ft 472 kts 56°
2026-05-07 13:01 46.79174 7.27455 33999 ft 472 kts 56°
2026-05-07 13:01 46.80870 7.31473 34244 ft 472 kts 56°
2026-05-07 13:01 46.82591 7.35556 34493 ft 472 kts 56°
2026-05-07 13:01 46.84315 7.39647 34730 ft 472 kts 56°
2026-05-07 13:02 46.86208 7.43540 34961 ft 470 kts 49°
2026-05-07 13:02 46.88249 7.47277 35185 ft 470 kts 49°
2026-05-07 13:02 46.90289 7.51015 35408 ft 471 kts 49°
2026-05-07 13:02 46.92330 7.54763 35617 ft 471 kts 49°
2026-05-07 13:03 46.94368 7.58512 35877 ft 470 kts 49°
2026-05-07 13:03 46.96402 7.62258 35996 ft 469 kts 50°
2026-05-07 13:03 47.00430 7.69707 36022 ft 465 kts 50°
2026-05-07 13:04 47.04426 7.77138 36023 ft 464 kts 50°
2026-05-07 13:04 47.08433 7.84575 36025 ft 464 kts 50°
2026-05-07 13:05 47.12426 7.92006 36031 ft 463 kts 50°
2026-05-07 13:05 47.16018 7.99863 36017 ft 463 kts 56°
2026-05-07 13:06 47.19436 8.07892 36017 ft 464 kts 56°
2026-05-07 13:06 47.22855 8.15941 36020 ft 464 kts 56°
2026-05-07 13:07 47.26279 8.24000 36022 ft 464 kts 56°
2026-05-07 13:07 47.29937 8.31794 36037 ft 461 kts 46°
2026-05-07 13:08 47.34828 8.37780 36038 ft 456 kts 30°
2026-05-07 13:08 47.39252 8.42014 36036 ft 456 kts 30°
2026-05-07 13:09 47.44563 8.47153 36060 ft 456 kts 31°
2026-05-07 13:09 47.49865 8.52324 36074 ft 456 kts 31°
2026-05-07 13:10 47.55159 8.57484 36067 ft 456 kts 31°
2026-05-07 13:10 47.60460 8.62647 36061 ft 456 kts 31°
2026-05-07 13:11 47.65759 8.67818 36054 ft 456 kts 31°
2026-05-07 13:11 47.71051 8.73013 36057 ft 456 kts 31°
2026-05-07 13:12 47.76338 8.78209 36050 ft 455 kts 31°
2026-05-07 13:12 47.81618 8.83411 36044 ft 455 kts 31°
2026-05-07 13:13 47.86899 8.88623 36047 ft 456 kts 31°
2026-05-07 13:13 47.92176 8.93840 36046 ft 455 kts 31°
2026-05-07 13:14 47.97436 8.99072 36038 ft 455 kts 31°
2026-05-07 13:14 48.02700 9.04309 36033 ft 455 kts 31°
2026-05-07 13:15 48.07964 9.09557 36043 ft 455 kts 32°
2026-05-07 13:15 48.13198 9.14766 36040 ft 454 kts 29°
2026-05-07 13:16 48.19000 9.18427 36040 ft 448 kts 10°
2026-05-07 13:16 48.25100 9.19693 36037 ft 445 kts
2026-05-07 13:17 48.31300 9.20719 36039 ft 445 kts
2026-05-07 13:17 48.37461 9.21754 36028 ft 445 kts
2026-05-07 13:18 48.43569 9.22794 36026 ft 445 kts
2026-05-07 13:18 48.49726 9.23853 36025 ft 445 kts
2026-05-07 13:19 48.55880 9.24903 36032 ft 445 kts
2026-05-07 13:19 48.62028 9.25944 36029 ft 445 kts
2026-05-07 13:20 48.68189 9.26691 36028 ft 444 kts
2026-05-07 13:20 48.74350 9.27170 36031 ft 443 kts
2026-05-07 13:21 48.80518 9.27664 36035 ft 444 kts
2026-05-07 13:21 48.86674 9.28241 36032 ft 443 kts
2026-05-07 13:22 48.92829 9.28850 36023 ft 443 kts
2026-05-07 13:22 48.98981 9.29455 36031 ft 443 kts
2026-05-07 13:23 49.05136 9.30046 36029 ft 443 kts
2026-05-07 13:23 49.11296 9.30631 36035 ft 443 kts
2026-05-07 13:24 49.17439 9.31354 36044 ft 444 kts
2026-05-07 13:24 49.23279 9.34412 36037 ft 447 kts 28°
2026-05-07 13:25 49.28298 9.40055 36028 ft 449 kts 38°
2026-05-07 13:25 49.33155 9.46099 36022 ft 450 kts 38°
2026-05-07 13:26 49.38011 9.52153 36032 ft 450 kts 38°
2026-05-07 13:26 49.42863 9.58224 36032 ft 450 kts 38°
2026-05-07 13:27 49.47708 9.64304 36026 ft 450 kts 38°
2026-05-07 13:27 49.52553 9.70392 36026 ft 449 kts 38°
2026-05-07 13:28 49.57392 9.76484 36030 ft 449 kts 38°
2026-05-07 13:28 49.62224 9.82597 36029 ft 449 kts 38°
2026-05-07 13:29 49.67044 9.88705 36027 ft 448 kts 38°
2026-05-07 13:29 49.71253 9.95781 36012 ft 450 kts 57°
2026-05-07 13:30 49.73763 10.04594 36007 ft 450 kts 73°
2026-05-07 13:30 49.75622 10.13854 36015 ft 451 kts 72°
2026-05-07 13:31 49.77496 10.23100 36021 ft 451 kts 72°
2026-05-07 13:31 49.79360 10.32369 36018 ft 451 kts 73°
2026-05-07 13:32 49.81208 10.41648 36015 ft 451 kts 73°
2026-05-07 13:32 49.83052 10.50939 36015 ft 451 kts 73°
2026-05-07 13:33 49.84874 10.60180 36010 ft 452 kts 73°
2026-05-07 13:33 49.86708 10.69504 36013 ft 453 kts 73°
2026-05-07 13:34 49.89447 10.83508 36012 ft 452 kts 73°
2026-05-07 13:35 49.91260 10.92862 36011 ft 453 kts 73°
2026-05-07 13:35 49.93077 11.02220 36004 ft 453 kts 73°
2026-05-07 13:36 49.94881 11.11590 36003 ft 453 kts 73°
2026-05-07 13:36 49.96542 11.21038 35998 ft 453 kts 82°
2026-05-07 13:37 49.96713 11.30748 36000 ft 451 kts 94°
2026-05-07 13:37 49.96409 11.40480 35997 ft 451 kts 94°
2026-05-07 13:38 49.96102 11.50215 35984 ft 451 kts 94°
2026-05-07 13:38 49.95774 11.59950 35987 ft 451 kts 94°
2026-05-07 13:39 49.95442 11.69676 35993 ft 452 kts 94°
2026-05-07 13:39 49.95104 11.79416 35986 ft 451 kts 94°
2026-05-07 13:40 49.94761 11.89152 35984 ft 451 kts 94°
2026-05-07 13:40 49.94442 11.98883 35975 ft 452 kts 94°
2026-05-07 13:41 49.94249 12.08634 35981 ft 452 kts 93°
2026-05-07 13:41 49.94086 12.18388 35986 ft 452 kts 93°
2026-05-07 13:42 49.93889 12.28138 35987 ft 452 kts 93°
2026-05-07 13:42 49.93775 12.33029 35843 ft 453 kts 94°
2026-05-07 13:42 49.93656 12.37903 35588 ft 452 kts 94°
2026-05-07 13:42 49.93521 12.42763 35346 ft 450 kts 94°
2026-05-07 13:43 49.93377 12.47596 35095 ft 447 kts 94°
2026-05-07 13:43 49.93232 12.52388 34624 ft 444 kts 94°
2026-05-07 13:43 49.93089 12.57180 34107 ft 443 kts 94°
2026-05-07 13:43 49.92948 12.61939 33533 ft 441 kts 94°
2026-05-07 13:44 49.92808 12.66663 33043 ft 437 kts 94°
2026-05-07 13:44 49.92667 12.71353 32533 ft 433 kts 94°
2026-05-07 13:44 49.92524 12.76008 32043 ft 430 kts 94°
2026-05-07 13:44 49.92379 12.80618 31554 ft 427 kts 94°
2026-05-07 13:45 49.92235 12.85197 31068 ft 424 kts 95°
2026-05-07 13:45 49.92092 12.89742 30602 ft 421 kts 95°
2026-05-07 13:45 49.91949 12.94255 30133 ft 418 kts 95°
2026-05-07 13:45 49.91804 12.98746 29622 ft 414 kts 95°
2026-05-07 13:46 49.91659 13.03173 29181 ft 408 kts 95°
2026-05-07 13:46 49.91512 13.07536 28741 ft 402 kts 96°
2026-05-07 13:46 49.91363 13.11840 28320 ft 396 kts 95°
2026-05-07 13:46 49.91214 13.16074 27910 ft 391 kts 96°
2026-05-07 13:47 49.91066 13.20252 27495 ft 386 kts 96°
2026-05-07 13:47 49.90921 13.24375 27080 ft 380 kts 95°
2026-05-07 13:47 49.90778 13.28455 26656 ft 376 kts 95°
2026-05-07 13:47 49.90634 13.32487 26238 ft 372 kts 96°
2026-05-07 13:48 49.90490 13.36473 25812 ft 369 kts 94°
2026-05-07 13:48 49.90345 13.40436 25381 ft 366 kts 96°
2026-05-07 13:48 49.90378 13.44370 24937 ft 366 kts 85°
2026-05-07 13:48 49.90925 13.48214 24474 ft 366 kts 72°
2026-05-07 13:49 49.91973 13.51819 24037 ft 366 kts 60°
2026-05-07 13:49 49.93443 13.55046 23574 ft 367 kts 54°
2026-05-07 13:49 49.95000 13.58172 23062 ft 365 kts 53°
2026-05-07 13:49 49.96546 13.61284 22623 ft 362 kts 54°
2026-05-07 13:50 49.98075 13.64370 22179 ft 359 kts 54°
2026-05-07 13:50 49.99594 13.67448 21742 ft 357 kts 54°
2026-05-07 13:50 50.01097 13.70505 21315 ft 355 kts 54°
2026-05-07 13:50 50.02589 13.73546 20887 ft 353 kts 54°
2026-05-07 13:51 50.04074 13.76570 20457 ft 351 kts 55°
2026-05-07 13:51 50.05548 13.79575 20037 ft 349 kts 55°
2026-05-07 13:51 50.06919 13.82668 19623 ft 345 kts 64°
2026-05-07 13:51 50.07866 13.86061 19235 ft 340 kts 75°
2026-05-07 13:52 50.08366 13.89578 18846 ft 336 kts 84°
2026-05-07 13:52 50.08762 13.93151 18453 ft 335 kts 83°
2026-05-07 13:52 50.09168 13.96727 18035 ft 335 kts 83°
2026-05-07 13:52 50.09574 14.00279 17636 ft 332 kts 83°
2026-05-07 13:53 50.09976 14.03812 17258 ft 330 kts 83°
2026-05-07 13:53 50.10373 14.07329 16879 ft 329 kts 83°
2026-05-07 13:53 50.10767 14.10834 16512 ft 328 kts 83°
2026-05-07 13:53 50.11159 14.14320 16140 ft 327 kts 83°
2026-05-07 13:54 50.11423 14.16671 15893 ft 326 kts 83°
2026-05-07 13:54 50.11812 14.20151 15530 ft 325 kts 83°
2026-05-07 13:54 50.12198 14.23614 15166 ft 325 kts 83°
2026-05-07 13:54 50.12581 14.27079 14808 ft 324 kts 83°
2026-05-07 13:55 50.12961 14.30533 14444 ft 324 kts 83°
2026-05-07 13:55 50.13334 14.33993 14066 ft 323 kts 85°
2026-05-07 13:55 50.13375 14.37405 13710 ft 318 kts 100°
2026-05-07 13:55 50.12875 14.40763 13323 ft 311 kts 115°
2026-05-07 13:56 50.11923 14.43694 12974 ft 305 kts 128°
2026-05-07 13:56 50.10645 14.46356 12619 ft 302 kts 131°
2026-05-07 13:56 50.09381 14.48949 12271 ft 300 kts 131°
2026-05-07 13:56 50.08123 14.51532 11916 ft 299 kts 131°
2026-05-07 13:57 50.06885 14.54075 11565 ft 298 kts 131°
2026-05-07 13:57 50.05616 14.56679 11203 ft 297 kts 131°
2026-05-07 13:57 50.04369 14.59237 10820 ft 297 kts 131°
2026-05-07 13:57 50.03135 14.61764 10453 ft 297 kts 131°
2026-05-07 13:58 50.01886 14.64320 10068 ft 297 kts 131°
2026-05-07 13:58 50.00638 14.66872 9732 ft 295 kts 131°
2026-05-07 13:58 49.99398 14.69406 9322 ft 294 kts 131°
2026-05-07 13:58 49.98157 14.71935 8895 ft 293 kts 132°
2026-05-07 13:59 49.96664 14.73997 8464 ft 285 kts 158°
2026-05-07 13:59 49.94796 14.74780 8012 ft 278 kts 184°
2026-05-07 13:59 49.92955 14.74161 7666 ft 270 kts 208°
2026-05-07 13:59 49.91526 14.72408 7539 ft 261 kts 232°
2026-05-07 14:00 49.90713 14.69919 7452 ft 262 kts 255°
2026-05-07 14:00 49.90635 14.67108 7276 ft 264 kts 278°
2026-05-07 14:00 49.91340 14.64480 6990 ft 267 kts 301°
2026-05-07 14:00 49.92455 14.62182 6653 ft 265 kts 304°
2026-05-07 14:01 49.93577 14.59933 6315 ft 262 kts 304°
2026-05-07 14:01 49.94678 14.57693 5954 ft 259 kts 303°
2026-05-07 14:01 49.95762 14.55474 5602 ft 256 kts 303°
2026-05-07 14:01 49.96834 14.53279 5258 ft 254 kts 304°
2026-05-07 14:02 49.97894 14.51109 4930 ft 250 kts 304°
2026-05-07 14:02 49.98935 14.48977 4587 ft 243 kts 304°
2026-05-07 14:02 49.99929 14.46941 4265 ft 230 kts 304°
2026-05-07 14:02 50.00878 14.44993 3956 ft 222 kts 304°
2026-05-07 14:03 50.01791 14.43117 3663 ft 214 kts 304°
2026-05-07 14:03 50.02666 14.41321 3383 ft 208 kts 304°
2026-05-07 14:03 50.03527 14.39550 3102 ft 196 kts 303°
2026-05-07 14:03 50.04308 14.37948 2873 ft 175 kts 302°
2026-05-07 14:04 50.04999 14.36525 2664 ft 159 kts 303°
2026-05-07 14:04 50.05633 14.35222 2443 ft 144 kts 303°
2026-05-07 14:04 50.06218 14.34012 2211 ft 137 kts 303°
2026-05-07 14:04 50.06789 14.32835 2036 ft 135 kts 301°
2026-05-07 14:05 50.07351 14.31677 1859 ft 135 kts 301°
2026-05-07 14:05 50.07917 14.30507 1650 ft 138 kts 301°
2026-05-07 14:05 50.08500 14.29295 1472 ft 142 kts 303°
2026-05-07 14:05 50.09088 14.28086 1258 ft 139 kts 301°
2026-05-07 14:06 50.09624 14.26966 1206 ft 109 kts 307°
2026-05-07 14:06 50.09975 14.26244 1196 ft 59 kts 306°
2026-05-07 14:06 50.10199 14.25790 1187 ft 40 kts 314°
2026-05-07 14:06 50.10387 14.25660 1184 ft 27 kts
2026-05-07 14:07 50.10430 14.25665 1183 ft 0 kts
2026-05-07 14:08 50.10446 14.25667 1183 ft 5 kts
2026-05-07 14:08 50.10481 14.25715 1177 ft 11 kts 69°
2026-05-07 14:08 50.10502 14.25877 1176 ft 18 kts 79°
2026-05-07 14:09 50.10527 14.26068 1174 ft 17 kts 78°
2026-05-07 14:09 50.10533 14.26233 1174 ft 15 kts 103°
2026-05-07 14:09 50.10491 14.26343 1169 ft 11 kts 125°
2026-05-07 14:09 50.10451 14.26434 1169 ft 10 kts 124°
2026-05-07 14:10 50.10415 14.26516 1169 ft 9 kts 123°
2026-05-07 14:10 50.10424 14.26571 1170 ft 5 kts 38°
2026-05-07 14:10 50.10438 14.26586 1169 ft 0 kts 34°